sat.trackr.live / text

‹ back to catalog

STARLINK-34527

NORAD 64482 · 2025-133L

PAYLOAD ACTIVE UNKNOWN

§ Identity

Operator
Country
US
Launch date
2025-06-23
Launch site
AFETR
Launch vehicle
Mass (kg)
RCS (m²)

Purposes: comms

External: N2YO · Heavens-Above · Gunter

§ Orbital elements

Epoch: 2026-05-25T02:40:13.323648Z

Period
94.11 min
Inclination
53.1585°
Eccentricity
0.0001587
Mean motion
15.30195701 rev/d
Perigee alt
474.1 km
Apogee alt
476.3 km
Semi-major
6,853.4 km
B*
6.5774e-4
RAAN
121.4868°
Arg perigee
88.1993°
Mean anomaly
271.9190°
Rev number
5,289

§ Raw data

STARLINK-345271 64482U 25133L   26145.11126532  .00019169  00000+0  65774-3 0  99942 64482  53.1585 121.4868 0001587  88.1993 271.9190 15.30195701 52897

JSON: /api/v1/satellites/64482 · /tle

For live sub-satellite position, see the globe view (requires WebGL).

§ Visibility from observer

Set your observer location to see the next 7 days of passes ≥ 10°. The values pass through the URL so the page stays shareable.

No JS? Fill the form by hand. The geolocation button needs JavaScript.